This demonstration page uses our WeatherBlox Daily Observations layout. Learn more.

Left ArrowRight Arrow

Hourly Observations for August 5, 2018

Temp ( °F °C ) Dew Point ( °F °C ) Humidity (%) Winds ( mph kmh ) Pressure ( in mb ) Visibility ( mi km ) Precip ( " mm )
12:16 am 00:16 Clear 72 22 72 22 100 100 N N/A 30.15 1021 10 16 N/A
12:37 am 00:37 Clear 72 22 72 22 100 100 N N/A 30.18 1022 10 16 N/A
12:57 am 00:57 Clear 72 22 72 22 100 100 S 3 6 30.18 1022 10 16 N/A
1:16 am 01:16 Clear 70 21 70 21 100 100 N N/A 30.18 1022 10 16 N/A
1:37 am 01:37 Clear 70 21 70 21 100 100 N N/A 30.18 1022 10 16 N/A
1:56 am 01:56 Clear 70 21 70 21 100 100 SSE 3 6 30.15 1021 7 11 N/A
2:16 am 02:16 Clear 70 21 70 21 100 100 S 3 6 30.15 1021 10 16 N/A
2:37 am 02:37 Clear 70 21 70 21 100 100 SSE 3 6 30.15 1021 7 11 N/A
2:56 am 02:56 Clear 70 21 70 21 100 100 SSE 3 6 30.15 1021 7 11 N/A
3:17 am 03:17 Clear 68 20 68 20 100 100 S 3 6 30.15 1021 7 11 N/A
3:36 am 03:36 Clear 68 20 68 20 100 100 SSE 3 6 30.15 1021 7 11 N/A
3:56 am 03:56 Clear 70 21 70 21 100 100 N N/A 30.15 1021 7 11 N/A
4:17 am 04:17 Clear 68 20 68 20 100 100 N N/A 30.15 1021 7 11 N/A
4:36 am 04:36 Clear 68 20 68 20 100 100 S 3 6 30.15 1021 7 11 N/A
4:57 am 04:57 Clear 70 21 70 21 100 100 S 3 6 30.15 1021 7 11 N/A
5:17 am 05:17 Clear 70 21 70 21 100 100 S 3 6 30.15 1021 7 11 N/A
5:36 am 05:36 Clear 68 20 68 20 100 100 N N/A 30.18 1022 7 11 N/A
5:57 am 05:57 Clear 68 20 68 20 100 100 N N/A 30.18 1022 7 11 N/A
6:16 am 06:16 Clear 68 20 68 20 100 100 S 3 6 30.18 1022 7 11 N/A
6:36 am 06:36 Clear 68 20 68 20 100 100 N N/A 30.18 1022 7 11 N/A
6:57 am 06:57 Sunny 68 20 68 20 100 100 S 3 6 30.18 1022 7 11 N/A
7:16 am 07:16 Sunny 68 20 68 20 100 100 S 3 6 30.18 1022 7 11 N/A
7:37 am 07:37 Sunny 68 20 68 20 100 100 S 3 6 30.18 1022 5 8 N/A
7:56 am 07:56 Sunny 70 21 70 21 100 100 S 3 6 30.18 1022 5 8 N/A
8:16 am 08:16 Sunny 72 22 72 22 100 100 S 3 6 30.18 1022 7 11 N/A
8:37 am 08:37 Sunny 73 23 73 23 100 100 S 5 7 30.15 1021 7 11 N/A
8:56 am 08:56 Sunny 75 24 75 24 100 100 SSW 5 7 30.15 1021 10 16 N/A
9:16 am 09:16 Sunny 75 24 75 24 100 100 SSW 6 9 30.15 1021 10 16 N/A
9:37 am 09:37 Sunny 75 24 73 23 94 94 SSW 6 9 30.15 1021 10 16 N/A
9:56 am 09:56 Sunny 77 25 75 24 94 94 SSW 5 7 30.15 1021 10 16 N/A
10:17 am 10:17 Sunny 79 26 75 24 89 89 SSW 5 7 30.15 1021 10 16 N/A
10:36 am 10:36 Sunny 81 27 77 25 89 89 S 3 6 30.15 1021 10 16 N/A
10:56 am 10:56 Sunny 81 27 77 25 89 89 S 3 6 30.15 1021 10 16 N/A
11:17 am 11:17 Sunny 82 28 77 25 84 84 SSW 3 6 30.15 1021 10 16 N/A
11:36 am 11:36 Sunny 84 29 77 25 79 79 SW 7 11 30.15 1021 10 16 N/A
11:57 am 11:57 Sunny 86 30 75 24 70 70 WSW 5 7 30.15 1021 10 16 N/A
12:16 pm 12:16 Sunny 86 30 75 24 70 70 SW 7 11 30.15 1021 10 16 N/A
12:37 pm 12:37 Sunny 88 31 75 24 66 66 SSW 8 13 30.15 1021 10 16 N/A
12:57 pm 12:57 Partly Cloudy 86 30 73 23 66 66 WSW 9 15 30.15 1021 10 16 N/A
1:16 pm 13:16 Partly Cloudy 88 31 73 23 62 62 SW 8 13 30.15 1021 10 16 N/A
1:37 pm 13:37 Partly Cloudy 86 30 73 23 66 66 WSW 9 15 30.15 1021 10 16 N/A
1:56 pm 13:56 Mostly Cloudy 84 29 75 24 74 74 WSW 6 9 30.15 1021 10 16 N/A
2:17 pm 14:17 Mostly Cloudy 88 31 73 23 62 62 WSW 8 13 30.15 1021 10 16 N/A
2:37 pm 14:37 Partly Cloudy 88 31 75 24 66 66 SW 8 13 30.15 1021 10 16 N/A
2:56 pm 14:56 Partly Cloudy 84 29 73 23 70 70 N N/A 30.15 1021 10 16 N/A
3:17 pm 15:17 Mostly Cloudy 84 29 73 23 70 70 S 8 13 30.12 1020 10 16 N/A
3:36 pm 15:36 Partly Cloudy 88 31 75 24 66 66 SSW 9 15 30.12 1020 10 16 N/A
3:57 pm 15:57 Sunny 86 30 73 23 66 66 SSW 7 11 30.12 1020 10 16 N/A
4:16 pm 16:16 Sunny 86 30 73 23 66 66 SSW 7 11 30.12 1020 10 16 N/A
4:36 pm 16:36 Sunny 86 30 75 24 70 70 SSW 9 15 30.12 1020 10 16 N/A
4:57 pm 16:57 Sunny 86 30 75 24 70 70 S 9 15 30.09 1019 10 16 N/A
5:16 pm 17:16 Sunny 88 31 75 24 66 66 SSW 9 15 30.09 1019 10 16 N/A
5:36 pm 17:36 Sunny 86 30 73 23 66 66 SSW 9 15 30.09 1019 10 16 N/A
5:57 pm 17:57 Sunny 86 30 75 24 70 70 S 9 15 30.09 1019 10 16 N/A
6:16 pm 18:16 Sunny 86 30 75 24 70 70 S 9 15 30.09 1019 10 16 N/A
6:37 pm 18:37 Sunny 86 30 75 24 70 70 SSW 9 15 30.09 1019 10 16 N/A
6:57 pm 18:57 Sunny 84 29 77 25 79 79 S 6 9 30.09 1019 10 16 N/A
7:16 pm 19:16 Sunny 84 29 75 24 74 74 SSW 8 13 30.09 1019 10 16 N/A
7:37 pm 19:37 Sunny 84 29 75 24 74 74 SSW 7 11 30.09 1019 10 16 N/A
7:56 pm 19:56 Sunny 84 29 75 24 74 74 S 6 9 30.09 1019 10 16 N/A
8:16 pm 20:16 Sunny 82 28 75 24 79 79 S 3 6 30.09 1019 10 16 N/A
8:37 pm 20:37 Sunny 81 27 75 24 84 84 SSW 3 6 30.12 1020 10 16 N/A
8:56 pm 20:56 Clear 79 26 73 23 84 84 S 3 6 30.12 1020 10 16 N/A
9:17 pm 21:17 Clear 79 26 73 23 84 84 N N/A 30.12 1020 10 16 N/A
9:36 pm 21:36 Clear 77 25 73 23 89 89 S 3 6 30.12 1020 10 16 N/A
9:56 pm 21:56 Clear 75 24 73 23 94 94 N N/A 30.12 1020 10 16 N/A
10:17 pm 22:17 Clear 75 24 73 23 94 94 S 3 6 30.12 1020 10 16 N/A
10:36 pm 22:36 Clear 75 24 73 23 94 94 S 3 6 30.15 1021 10 16 N/A
10:57 pm 22:57 Clear 73 23 73 23 100 100 S 3 6 30.15 1021 10 16 N/A
11:16 pm 23:16 Clear 73 23 73 23 100 100 N N/A 30.15 1021 10 16 N/A
11:36 pm 23:36 Partly Cloudy 72 22 72 22 100 100 N N/A 30.18 1022 10 16 N/A
11:57 pm 23:57 Clear 72 22 72 22 100 100 SSE 5 7 30.18 1022 10 16 N/A

Powered by AerisWeather